DW1437 Weather Reports


Display with metric or nautical units.
time (UTC)temp
F
wind
direction
speed
MPH
gust
MPH
rain 1hr
in
rain 24hr
in
rain mn
in
humidity
%
barometer
mb
20260506144318 57 32 0.0 9.0 0.00 0.00 0.00 58 1013.6
20260506143313 57 45 0.0 1.0 0.00 0.00 0.00 60 1013.6
20260506142241 57 44 1.0 8.0 0.00 0.00 0.00 57 1013.6
20260506141237 57 44 1.0 8.0 0.00 0.00 0.00 61 1013.7
20260506135059 58 59 0.0 6.0 0.00 0.00 0.00 58 1013.8
20260506132943 56 15 0.0 0.0 0.00 0.00 0.00 61 1014.0
20260506131927 57 46 1.0 6.0 0.00 0.00 0.00 60 1014.0
20260506125802 56 26 1.0 6.0 0.00 0.00 0.00 62 1014.1
20260506124736 56 32 0.0 3.0 0.00 0.00 0.00 63 1014.2
20260506123757 56 336 1.0 1.0 0.00 0.00 0.00 64 1014.1
20260506122817 56 38 0.0 4.0 0.00 0.00 0.00 63 1014.0
20260506120654 56 57 0.0 3.0 0.00 0.00 0.00 63 1014.2
20260506114537 56 113 1.0 4.0 0.00 0.00 0.00 63 1014.3
20260506113556 56 36 2.0 4.0 0.00 0.00 0.00 64 1014.4
20260506112528 55 52 1.0 3.0 0.00 0.00 0.00 66 1014.5
20260506111506 54 67 0.0 1.0 0.00 0.00 0.00 68 1014.4
20260506110523 54 76 1.0 4.0 0.00 0.00 0.00 66 1014.4
20260506105508 54 57 2.0 6.0 0.00 0.00 0.00 67 1014.6
20260506104505 55 51 2.0 6.0 0.00 0.00 0.00 66 1014.7
20260506103434 55 53 1.0 5.0 0.00 0.00 0.00 67 1014.6
20260506101336 54 5 1.0 5.0 0.00 0.00 0.00 68 1014.6
20260506100356 54 13 1.0 5.0 0.00 0.00 0.00 70 1014.6
20260506095413 54 29 1.0 4.0 0.00 0.00 0.00 69 1014.6
20260506094354 53 33 0.0 4.0 0.00 0.00 0.00 70 1014.5
20260506093410 53 40 1.0 4.0 0.00 0.00 0.00 71 1014.5
20260506092432 52 20 1.0 0.0 0.00 0.00 0.00 70 1014.6
20260506091407 51 66 1.0 3.0 0.00 0.00 0.00 72 1014.6
20260506081756 48 67 0.0 3.0 0.00 0.00 0.00 77 1014.6
20260506072534 46 32 0.0 0.0 0.00 0.00 0.00 80 1014.6
20260506071519 46 32 1.0 3.0 0.00 0.00 0.00 80 1014.5
20260506070510 46 28 0.0 1.0 0.00 0.00 0.00 80 1014.5
20260506061535 45 55 1.0 4.0 0.00 0.00 0.00 81 1014.3
20260506060543 45 38 0.0 3.0 0.00 0.00 0.00 82 1014.2
20260506050519 45 30 0.0 0.0 0.00 0.00 0.00 80 1014.0
20260506044458 45 30 0.0 0.0 0.00 0.00 0.00 80 1013.9
20260506043449 45 30 0.0 0.0 0.00 0.00 0.00 80 1013.9
20260506042459 45 30 0.0 0.0 0.00 0.00 0.00 80 1013.9
20260506041519 45 30 0.0 0.0 0.00 0.00 0.00 79 1013.9
20260506040525 45 30 0.0 0.0 0.00 0.00 0.00 79 1013.9
20260506035516 46 30 0.0 0.0 0.00 0.00 0.00 80 1013.9
20260506034514 46 29 0.0 4.0 0.00 0.00 0.00 80 1013.9
20260506033501 46 76 1.0 4.0 0.00 0.00 0.00 81 1014.0
20260506032443 46 48 0.0 1.0 0.00 0.00 0.00 82 1014.0
20260506031450 46 30 0.0 0.0 0.00 0.00 0.00 81 1014.0
20260506030450 47 30 0.0 0.0 0.00 0.00 0.00 81 1014.0
20260506025500 47 27 0.0 3.0 0.00 0.00 0.00 81 1014.0
20260506023251 47 13 0.0 3.0 0.00 0.00 0.00 82 1014.0
20260506022305 47 32 0.0 0.0 0.00 0.00 0.00 82 1014.0
20260506020122 48 32 0.0 2.0 0.00 0.00 0.00 81 1013.9
20260506015137 48 32 0.0 2.0 0.00 0.00 0.00 80 1013.9
20260506014117 48 32 1.0 2.0 0.00 0.00 0.00 80 1013.9
20260506011956 48 40 1.0 5.0 0.00 0.00 0.00 80 1014.0
20260506011006 48 24 0.0 5.0 0.00 0.00 0.00 81 1014.0
20260506005954 49 355 0.0 0.0 0.00 0.00 0.00 81 1014.0
20260506005017 49 36 0.0 0.0 0.00 0.00 0.00 82 1014.0
20260506003958 49 38 0.0 0.0 0.00 0.00 0.00 82 1014.0
20260506002928 49 32 0.0 0.0 0.00 0.00 0.00 82 1014.1
20260506001926 49 47 0.0 0.0 0.00 0.00 0.00 82 1014.1
20260505235841 49 16 0.0 0.0 0.00 0.00 0.00 82 1014.0
20260505234820 49 15 0.0 0.0 0.00 0.00 0.00 82 1014.0
20260505233804 49 15 0.0 0.0 0.00 0.00 0.00 82 1014.0
20260505232740 49 15 0.0 0.0 0.00 0.00 0.00 82 1014.0
20260505231744 49 0 0.0 0.0 0.00 0.00 0.00 82 1014.0
20260505230805 49 0 0.0 0.0 0.00 0.00 0.00 82 1014.1
20260505225750 49 0 0.0 0.0 0.00 0.00 0.00 82 1014.1
20260505224753 49 311 0.0 0.0 0.00 0.00 0.00 82 1014.1
20260505222700 49 294 0.0 0.0 0.00 0.00 0.00 82 1014.0
20260505221713 50 294 0.0 1.0 0.00 0.00 0.00 81 1014.0
20260505220710 50 294 0.0 0.0 0.00 0.00 0.00 81 1014.0
20260505215712 50 294 0.0 0.0 0.00 0.00 0.00 81 1013.9
20260505214650 50 311 0.0 2.0 0.00 0.00 0.00 80 1013.9
20260505213700 50 311 0.0 0.0 0.00 0.00 0.00 80 1014.0
20260505212639 50 298 0.0 0.0 0.00 0.00 0.00 80 1013.9
20260505210601 50 296 0.0 0.0 0.00 0.00 0.00 79 1013.9
20260505205547 50 296 0.0 0.0 0.00 0.00 0.00 78 1013.9
20260505204558 50 296 0.0 1.0 0.00 0.00 0.00 78 1013.9
20260505203617 50 296 0.0 0.0 0.00 0.00 0.00 77 1013.8
20260505202630 50 295 0.0 0.0 0.00 0.00 0.00 77 1013.8
20260505200519 51 295 0.0 1.0 0.00 0.00 0.00 76 1013.7
20260505195522 51 294 0.0 0.0 0.00 0.00 0.00 76 1013.6
20260505194505 51 293 0.0 0.0 0.00 0.00 0.00 75 1013.5
20260505193448 51 293 0.0 2.0 0.00 0.00 0.00 75 1013.4
20260505191255 52 320 0.0 0.0 0.00 0.00 0.00 74 1013.4
20260505190248 52 307 0.0 0.0 0.00 0.00 0.00 73 1013.3
20260505185218 52 294 0.0 0.0 0.00 0.00 0.00 72 1013.2
20260505184240 53 323 0.0 1.0 0.00 0.00 0.00 72 1013.2
20260505183259 53 355 0.0 0.0 0.00 0.00 0.00 71 1013.2
20260505182236 53 355 0.0 2.0 0.00 0.00 0.00 71 1013.2
20260505181214 54 0 0.0 1.0 0.00 0.00 0.00 71 1013.2
20260505180152 54 5 1.0 8.0 0.00 0.00 0.00 71 1013.2
20260505175127 55 315 0.0 3.0 0.00 0.00 0.00 70 1013.2
20260505174057 55 43 0.0 4.0 0.00 0.00 0.00 69 1013.2
20260505170754 56 312 1.0 8.0 0.00 0.00 0.00 66 1013.3
20260505165818 57 10 0.0 1.0 0.00 0.00 0.00 67 1013.3
20260505163705 58 323 1.0 6.0 0.00 0.00 0.00 66 1013.3
20260505162632 58 315 0.0 6.0 0.00 0.00 0.00 66 1013.3
20260505161627 58 5 2.0 11.0 0.00 0.00 0.00 68 1013.3
20260505160636 58 301 3.0 11.0 0.00 0.00 0.00 66 1013.2
20260505152524 59 309 1.0 4.0 0.00 0.00 0.00 62 1013.4
20260505151514 58 355 1.0 8.0 0.00 0.00 0.00 64 1013.5
20260505150523 56 5 1.0 8.0 0.00 0.00 0.00 66 1013.6